• în Republica Moldova
  • Lista ţărilor
  • Pe 7 zile
  • Temperatura apei
  • Hartă satelitară
  • Meteo pe hartă
  • Widget-uri
  • user-avatar
    Intrare

    Meteo pe oră la Salzburg

    Astăzi, 28 Iunie, Miercuri

    Timp Temperatura Precipitaţii Vânt Presiune Umiditate
    00:00 +9°C° 0 mm 2 m/s 622 mmHg 92%
    01:00 +9°C° 0 mm 2 m/s 621 mmHg 91%
    02:00 +9°C° 0 mm 2 m/s 621 mmHg 91%
    03:00 +9°C° 0 mm 2 m/s 621 mmHg 91%
    04:00 +9°C° 0 mm 2 m/s 620 mmHg 91%
    05:00 +10°C° 0 mm 2 m/s 620 mmHg 88%
    06:00 +12°C° 0 mm 3 m/s 621 mmHg 84%
    07:00 +14°C° 0 mm 3 m/s 621 mmHg 78%
    08:00 +16°C° 0,4 mm 3 m/s 622 mmHg 73%
    09:00 +17°C° 0,4 mm 3 m/s 622 mmHg 68%
    10:00 +19°C° 0,4 mm 3 m/s 622 mmHg 63%
    11:00 +19°C° 1 mm 3 m/s 622 mmHg 63%
    12:00 +19°C° 1 mm 3 m/s 622 mmHg 64%
    13:00 +19°C° 1 mm 3 m/s 622 mmHg 65%
    14:00 +19°C° 1,1 mm 3 m/s 621 mmHg 67%
    15:00 +18°C° 1,1 mm 2 m/s 621 mmHg 69%
    16:00 +18°C° 1,1 mm 2 m/s 621 mmHg 71%
    17:00 +16°C° 0,9 mm 2 m/s 620 mmHg 78%
    18:00 +15°C° 0,9 mm 2 m/s 619 mmHg 84%
    19:00 +14°C° 0,9 mm 2 m/s 619 mmHg 91%
    20:00 +13°C° 1,4 mm 1 m/s 618 mmHg 93%
    21:00 +12°C° 1,4 mm 1 m/s 618 mmHg 95%
    22:00 +11°C° 1,4 mm 1 m/s 617 mmHg 96%
    23:00 +11°C° 1,4 mm 1 m/s 617 mmHg 97%

    Mâine, 29 Iunie, Joi

    Timp Temperatura Precipitaţii Vânt Presiune Umiditate
    00:00 +10°C° 1,4 mm 1 m/s 616 mmHg 97%
    01:00 +10°C° 1,4 mm 1 m/s 616 mmHg 97%
    02:00 +10°C° 1,1 mm 1 m/s 616 mmHg 98%
    03:00 +8°C° 1,1 mm 2 m/s 615 mmHg 98%
    04:00 +8°C° 1,1 mm 2 m/s 615 mmHg 98%
    05:00 +8°C° 0,5 mm 2 m/s 615 mmHg 97%
    06:00 +9°C° 0,5 mm 2 m/s 616 mmHg 96%
    07:00 +9°C° 0,5 mm 2 m/s 616 mmHg 95%
    08:00 +10°C° 0,6 mm 2 m/s 617 mmHg 92%
    09:00 +10°C° 0,6 mm 2 m/s 617 mmHg 88%
    10:00 +12°C° 0,6 mm 2 m/s 618 mmHg 85%
    11:00 +12°C° 0,6 mm 2 m/s 618 mmHg 84%
    12:00 +12°C° 0,6 mm 2 m/s 618 mmHg 84%
    13:00 +12°C° 0,6 mm 2 m/s 619 mmHg 83%
    14:00 +12°C° 0,8 mm 2 m/s 619 mmHg 84%
    15:00 +12°C° 0,8 mm 2 m/s 619 mmHg 85%
    16:00 +12°C° 0,8 mm 2 m/s 619 mmHg 86%
    17:00 +12°C° 0,9 mm 1 m/s 619 mmHg 88%
    18:00 +11°C° 0,9 mm 1 m/s 619 mmHg 90%
    19:00 +11°C° 0,9 mm 1 m/s 619 mmHg 92%
    20:00 +10°C° 0,8 mm 1 m/s 619 mmHg 93%
    21:00 +9°C° 0,8 mm 1 m/s 619 mmHg 94%
    22:00 +8°C° 0,8 mm 2 m/s 620 mmHg 94%
    23:00 +8°C° 0,5 mm 1 m/s 620 mmHg 95%

    Poimâine, 30 Iunie, Vineri

    Timp Temperatura Precipitaţii Vânt Presiune Umiditate
    00:00 +8°C° 0,5 mm 1 m/s 620 mmHg 95%
    01:00 +7°C° 0,5 mm 1 m/s 620 mmHg 96%
    02:00 +7°C° 0,4 mm 1 m/s 620 mmHg 95%
    03:00 +7°C° 0,4 mm 1 m/s 620 mmHg 95%
    04:00 +7°C° 0,4 mm 1 m/s 620 mmHg 95%
    05:00 +7°C° 0,9 mm 1 m/s 620 mmHg 95%
    06:00 +7°C° 0,9 mm 1 m/s 621 mmHg 94%
    07:00 +7°C° 0,9 mm 1 m/s 621 mmHg 94%
    08:00 +8°C° 0,3 mm 1 m/s 622 mmHg 89%
    09:00 +8°C° 0,3 mm 2 m/s 622 mmHg 84%
    10:00 +9°C° 0,3 mm 2 m/s 623 mmHg 79%
    11:00 +10°C° 0,4 mm 2 m/s 623 mmHg 74%
    12:00 +13°C° 0,4 mm 2 m/s 624 mmHg 70%
    13:00 +14°C° 0,4 mm 2 m/s 624 mmHg 66%
    14:00 +14°C° 0,5 mm 2 m/s 624 mmHg 67%
    15:00 +14°C° 0,5 mm 2 m/s 624 mmHg 68%
    16:00 +14°C° 0,5 mm 2 m/s 624 mmHg 69%
    17:00 +13°C° 0,6 mm 2 m/s 623 mmHg 75%
    18:00 +12°C° 0,6 mm 2 m/s 623 mmHg 81%
    19:00 +11°C° 0,6 mm 1 m/s 623 mmHg 86%
    20:00 +9°C° 0,8 mm 1 m/s 622 mmHg 89%
    21:00 +8°C° 0,8 mm 1 m/s 622 mmHg 92%
    22:00 +6°C° 0,8 mm 1 m/s 622 mmHg 95%
    23:00 +6°C° 0,7 mm 1 m/s 622 mmHg 96%

    1 Iulie, Sâmbătă

    Timp Temperatura Precipitaţii Vânt Presiune Umiditate
    00:00 +6°C° 0,7 mm 1 m/s 622 mmHg 96%
    01:00 +6°C° 0,7 mm 1 m/s 621 mmHg 96%
    02:00 +6°C° 0,7 mm 1 m/s 622 mmHg 96%
    03:00 +6°C° 0,7 mm 1 m/s 622 mmHg 96%
    04:00 +6°C° 0,7 mm 1 m/s 622 mmHg 96%
    05:00 +6°C° 0,3 mm 1 m/s 622 mmHg 95%
    06:00 +7°C° 0,3 mm 1 m/s 623 mmHg 94%
    07:00 +7°C° 0,3 mm 1 m/s 623 mmHg 93%
    08:00 +9°C° 0,1 mm 1 m/s 623 mmHg 86%
    09:00 +11°C° 0,1 mm 1 m/s 624 mmHg 79%
    10:00 +12°C° 0,1 mm 1 m/s 625 mmHg 71%
    11:00 +13°C° 0,4 mm 1 m/s 625 mmHg 70%
    12:00 +13°C° 0,4 mm 2 m/s 625 mmHg 69%
    13:00 +14°C° 0,4 mm 2 m/s 625 mmHg 68%
    14:00 +13°C° 1,1 mm 2 m/s 625 mmHg 73%
    15:00 +12°C° 1,1 mm 2 m/s 624 mmHg 77%
    16:00 +12°C° 1,1 mm 2 m/s 624 mmHg 82%
    17:00 +11°C° 2,2 mm 1 m/s 624 mmHg 86%
    18:00 +10°C° 2,2 mm 1 m/s 624 mmHg 91%
    19:00 +9°C° 2,2 mm 1 m/s 624 mmHg 95%
    20:00 +8°C° 1,5 mm 1 m/s 624 mmHg 96%
    21:00 +8°C° 1,5 mm 1 m/s 624 mmHg 96%
    22:00 +7°C° 1,5 mm 1 m/s 624 mmHg 97%
    23:00 +7°C° 0,2 mm 1 m/s 624 mmHg 97%

    2 Iulie, Duminică

    Timp Temperatura Precipitaţii Vânt Presiune Umiditate
    00:00 +5°C° 0,2 mm 2 m/s 624 mmHg 97%
    01:00 +5°C° 0,2 mm 2 m/s 624 mmHg 97%
    02:00 +5°C° 0,4 mm 2 m/s 624 mmHg 97%
    03:00 +5°C° 0,4 mm 2 m/s 624 mmHg 97%
    04:00 +5°C° 0,4 mm 2 m/s 624 mmHg 97%
    05:00 +5°C° 0,8 mm 2 m/s 625 mmHg 97%
    06:00 +5°C° 0,8 mm 2 m/s 625 mmHg 97%
    07:00 +6°C° 0,8 mm 2 m/s 625 mmHg 96%
    08:00 +6°C° 0,9 mm 2 m/s 626 mmHg 94%
    09:00 +6°C° 0,9 mm 2 m/s 626 mmHg 92%
    10:00 +7°C° 0,9 mm 2 m/s 627 mmHg 90%
    11:00 +7°C° 0,5 mm 2 m/s 627 mmHg 88%
    12:00 +8°C° 0,5 mm 2 m/s 627 mmHg 86%
    13:00 +8°C° 0,5 mm 2 m/s 627 mmHg 83%
    14:00 +9°C° 0,1 mm 2 m/s 627 mmHg 81%
    15:00 +9°C° 0,1 mm 2 m/s 628 mmHg 78%
    16:00 +10°C° 0,1 mm 3 m/s 628 mmHg 76%
    17:00 +10°C° 0,1 mm 2 m/s 628 mmHg 79%
    18:00 +9°C° 0,1 mm 2 m/s 628 mmHg 83%
    19:00 +8°C° 0,1 mm 2 m/s 628 mmHg 87%
    20:00 +8°C° 0,5 mm 2 m/s 628 mmHg 90%
    21:00 +7°C° 0,5 mm 2 m/s 629 mmHg 93%
    22:00 +6°C° 0,5 mm 2 m/s 629 mmHg 96%
    23:00 +6°C° 0,6 mm 2 m/s 629 mmHg 96%

    3 Iulie, Luni

    Timp Temperatura Precipitaţii Vânt Presiune Umiditate
    00:00 +6°C° 0,6 mm 2 m/s 629 mmHg 96%
    01:00 +6°C° 0,6 mm 2 m/s 629 mmHg 96%
    02:00 +6°C° 0,3 mm 2 m/s 628 mmHg 97%
    03:00 +5°C° 0,3 mm 2 m/s 628 mmHg 97%
    04:00 +5°C° 0,3 mm 2 m/s 628 mmHg 97%
    05:00 +6°C° 0,2 mm 2 m/s 629 mmHg 95%
    06:00 +6°C° 0,2 mm 2 m/s 629 mmHg 93%
    07:00 +7°C° 0,2 mm 2 m/s 629 mmHg 92%
    08:00 +8°C° 0,2 mm 2 m/s 630 mmHg 88%
    09:00 +9°C° 0,2 mm 2 m/s 630 mmHg 84%
    10:00 +10°C° 0,2 mm 2 m/s 631 mmHg 80%
    11:00 +12°C° 0,1 mm 2 m/s 631 mmHg 75%
    12:00 +13°C° 0,1 mm 2 m/s 631 mmHg 71%
    13:00 +14°C° 0,1 mm 2 m/s 631 mmHg 67%
    14:00 +14°C° 0,1 mm 2 m/s 631 mmHg 66%
    15:00 +14°C° 0,1 mm 2 m/s 631 mmHg 66%
    16:00 +14°C° 0,1 mm 2 m/s 631 mmHg 66%
    17:00 +13°C° 0 mm 2 m/s 630 mmHg 72%
    18:00 +12°C° 0 mm 1 m/s 630 mmHg 79%
    19:00 +11°C° 0 mm 1 m/s 630 mmHg 85%
    20:00 +9°C° 0 mm 1 m/s 630 mmHg 89%
    21:00 +8°C° 0 mm 1 m/s 629 mmHg 93%
    22:00 +6°C° 0 mm 1 m/s 629 mmHg 97%
    23:00 +6°C° 0 mm 1 m/s 629 mmHg 96%
    Arată mai mult